Home   Weather   Paradise   Past weeks

Flag for USA Past Weather in Paradise, Nevada, USA — Yesterday and Last 2 Weeks

Now
87 °F

Passing clouds.


Feels Like: 84 °F
Forecast: 71 / 91 °F
Wind: 7 mph from North

Location: McCarran International Airport

Current Time: Sep 30, 2016 at 1:28:40 PM

Latest Report: Sep 30, 2016 at 12:56 PM


Visibility: 10 mi

Pressure: 29.98 "Hg (27.89 "Hg at 643m altitude)

Humidity: 22%

Dew Point: 44 °F

Location of ParadiseLocation

Past Weather in Paradise — Graph

°F

Paradise Temperature Yesterday

Maximum temperature yesterday: 89 °F (at 2:56 PM)
Minimum temperature yesterday: 71 °F (at 6:56 AM)
Average temperature yesterday: 81 °F

High & Low Weather Summary for the Past Weeks

 TemperatureHumidityPressure
High99 °F (Sep 18, 3:56 PM)68% (Sep 21, 3:56 AM)30.23 "Hg (Sep 21, 3:56 AM)
Low62 °F (Sep 24, 5:56 AM)3% (Sep 22, 2:56 PM)29.58 "Hg (Sep 22, 3:56 PM)
Average80 °F22%29.94 "Hg
* Reported Sep 15 11:56 AM — Sep 30 11:56 AM, Paradise, Weather by CustomWeather, © 2016

Note: Actual official high and low records may vary slightly from our data, if they occured in-between our weather recording intervals... More about our weather records

Advertising

Paradise Weather History for the Previous 24 Hours

Scroll right to see more
 ConditionsComfort  
Time TempWeatherWind HumidityBarometerVisibility
11:56 AM
Fri, Sep 30
86 °FPassing clouds.No wind23%30.02 "Hg10 mi
10:56 AM83 °FPassing clouds.No wind27%30.04 "Hg10 mi
9:56 AM80 °FPassing clouds.5 mph34%30.06 "Hg10 mi
8:56 AM79 °FScattered clouds.5 mph32%30.06 "Hg10 mi
7:56 AM75 °FScattered clouds.No wind37%30.05 "Hg10 mi
6:56 AM73 °FScattered clouds.5 mph41%30.04 "Hg10 mi
5:56 AM74 °FPassing clouds.5 mph37%30.02 "Hg10 mi
4:56 AM73 °FPassing clouds.3 mph34%30.01 "Hg10 mi
3:56 AM76 °FPassing clouds.3 mph35%30.01 "Hg10 mi
2:56 AM74 °FPassing clouds.3 mph32%30.00 "Hg10 mi
1:56 AM75 °FPassing clouds.5 mph31%30.00 "Hg10 mi
12:56 AM76 °FPassing clouds.No wind32%30.00 "Hg10 mi
11:56 PM
Thu, Sep 29
78 °FPassing clouds.6 mph27%30.00 "Hg10 mi
10:56 PM80 °FPassing clouds.5 mph27%30.00 "Hg10 mi
9:56 PM82 °FPassing clouds.3 mph27%29.99 "Hg10 mi
8:56 PM84 °FPassing clouds.3 mph26%29.98 "Hg10 mi
7:56 PM85 °FPassing clouds.5 mph26%29.97 "Hg10 mi
6:56 PM87 °FPassing clouds.5 mph23%29.96 "Hg10 mi
5:56 PM88 °FScattered clouds.5 mph22%29.96 "Hg10 mi
4:56 PM88 °FScattered clouds.6 mph22%29.96 "Hg10 mi
3:56 PM89 °FScattered clouds.9 mph22%29.98 "Hg10 mi
2:56 PM89 °FScattered clouds.10 mph22%29.99 "Hg10 mi
1:56 PM87 °FScattered clouds.9 mph23%30.01 "Hg10 mi
Weather by CustomWeather, © 2016

See weather overviewHow to use our weather pages